TimeEST,TemperatureF,Dew PointF,Humidity,Sea Level PressureIn,VisibilityMPH,Wind Direction,Wind SpeedMPH,Gust SpeedMPH,PrecipitationIn,Events,Conditions,WindDirDegrees,DateUTC
12:15 AM,46.4,35.6,66,30.42,10.0,North,11.5,-,N/A,,Partly Cloudy,10,2012-11-17 05:15:00
12:55 AM,46.4,33.8,62,30.41,10.0,NNE,13.8,17.3,N/A,,Clear,30,2012-11-17 05:55:00
1:15 AM,46.4,33.8,62,30.41,10.0,NNE,11.5,19.6,N/A,,Clear,30,2012-11-17 06:15:00
2:15 AM,46.4,35.6,66,30.42,10.0,NNE,17.3,-,N/A,,Clear,30,2012-11-17 07:15:00
2:35 AM,46.4,35.6,66,30.43,10.0,NNE,13.8,-,N/A,,Clear,20,2012-11-17 07:35:00
2:55 AM,46.4,35.6,66,30.43,10.0,NNE,16.1,23.0,N/A,,Clear,30,2012-11-17 07:55:00
3:15 AM,46.4,35.6,66,30.44,10.0,NNE,16.1,20.7,N/A,,Scattered Clouds,30,2012-11-17 08:15:00
3:35 AM,46.4,37.4,71,30.45,10.0,NNE,13.8,19.6,N/A,,Mostly Cloudy,20,2012-11-17 08:35:00
3:56 AM,46.4,37.4,71,30.46,10.0,NNE,16.1,23.0,N/A,,Overcast,30,2012-11-17 08:56:00
4:15 AM,46.4,37.4,71,30.47,10.0,NNE,18.4,21.9,N/A,,Overcast,30,2012-11-17 09:15:00
4:35 AM,46.4,35.6,66,30.48,10.0,NNE,18.4,24.2,N/A,,Overcast,30,2012-11-17 09:35:00
4:55 AM,44.6,37.4,76,30.48,10.0,NNE,15.0,24.2,N/A,,Overcast,30,2012-11-17 09:55:00
5:15 AM,44.6,35.6,71,30.49,10.0,NNE,15.0,23.0,N/A,,Overcast,30,2012-11-17 10:15:00
5:35 AM,44.6,37.4,76,30.50,10.0,NNE,18.4,23.0,N/A,,Overcast,30,2012-11-17 10:35:00
5:55 AM,44.6,37.4,76,30.51,10.0,NNE,17.3,21.9,N/A,,Overcast,30,2012-11-17 10:55:00
6:15 AM,44.6,35.6,71,30.52,10.0,NE,16.1,24.2,N/A,,Overcast,40,2012-11-17 11:15:00
6:35 AM,44.6,35.6,71,30.53,10.0,NNE,16.1,-,N/A,,Overcast,30,2012-11-17 11:35:00
6:55 AM,44.6,35.6,71,30.53,10.0,NNE,17.3,21.9,N/A,,Overcast,30,2012-11-17 11:55:00
7:15 AM,44.6,35.6,71,30.54,10.0,NNE,16.1,20.7,N/A,,Overcast,30,2012-11-17 12:15:00
7:35 AM,44.6,33.8,66,30.55,10.0,NNE,15.0,21.9,N/A,,Mostly Cloudy,30,2012-11-17 12:35:00
7:55 AM,46.4,35.6,66,30.56,10.0,NNE,13.8,21.9,N/A,,Overcast,30,2012-11-17 12:55:00
8:15 AM,46.4,35.6,66,30.57,10.0,NNE,17.3,21.9,N/A,,Overcast,30,2012-11-17 13:15:00
8:35 AM,46.4,33.8,62,30.57,10.0,NNE,15.0,18.4,N/A,,Overcast,30,2012-11-17 13:35:00
8:55 AM,46.4,33.8,62,30.58,10.0,NE,13.8,21.9,N/A,,Mostly Cloudy,40,2012-11-17 13:55:00
9:15 AM,46.4,33.8,62,30.59,10.0,NNE,15.0,20.7,N/A,,Scattered Clouds,30,2012-11-17 14:15:00
9:35 AM,46.4,32.0,57,30.59,10.0,NE,12.7,-,N/A,,Mostly Cloudy,40,2012-11-17 14:35:00
9:55 AM,46.4,33.8,62,30.60,10.0,NE,15.0,-,N/A,,Overcast,40,2012-11-17 14:55:00
10:15 AM,46.4,33.8,62,30.60,10.0,NNE,13.8,-,N/A,,Mostly Cloudy,30,2012-11-17 15:15:00
10:35 AM,46.4,33.8,62,30.59,10.0,NE,12.7,17.3,N/A,,Mostly Cloudy,40,2012-11-17 15:35:00
10:55 AM,46.4,33.8,62,30.59,10.0,NE,12.7,19.6,N/A,,Mostly Cloudy,40,2012-11-17 15:55:00
11:15 AM,46.4,35.6,66,30.59,10.0,NNE,15.0,19.6,N/A,,Overcast,30,2012-11-17 16:15:00
11:35 AM,46.4,32.0,57,30.59,10.0,NNE,12.7,-,N/A,,Mostly Cloudy,30,2012-11-17 16:35:00
11:55 AM,46.4,33.8,62,30.59,10.0,NE,12.7,-,N/A,,Mostly Cloudy,40,2012-11-17 16:55:00
12:15 PM,46.4,33.8,62,30.59,10.0,NNE,10.4,-,N/A,,Mostly Cloudy,30,2012-11-17 17:15:00
12:35 PM,46.4,33.8,62,30.59,10.0,NNE,10.4,-,N/A,,Mostly Cloudy,20,2012-11-17 17:35:00
12:55 PM,46.4,33.8,62,30.59,10.0,NNE,10.4,16.1,N/A,,Mostly Cloudy,30,2012-11-17 17:55:00
1:55 PM,44.6,33.8,66,30.59,10.0,NE,9.2,-,N/A,,Overcast,40,2012-11-17 18:55:00
2:15 PM,46.4,33.8,62,30.60,10.0,NNE,10.4,-,N/A,,Mostly Cloudy,30,2012-11-17 19:15:00
2:55 PM,44.6,32.0,61,30.60,10.0,NE,8.1,-,N/A,,Overcast,40,2012-11-17 19:55:00
3:15 PM,44.6,32.0,61,30.61,10.0,North,9.2,-,N/A,,Overcast,10,2012-11-17 20:15:00
3:35 PM,44.6,32.0,61,30.61,10.0,NNE,9.2,-,N/A,,Overcast,20,2012-11-17 20:35:00
3:55 PM,44.6,32.0,61,30.62,10.0,NNE,6.9,-,N/A,,Scattered Clouds,20,2012-11-17 20:55:00
4:15 PM,44.6,32.0,61,30.62,10.0,NNE,8.1,-,N/A,,Mostly Cloudy,30,2012-11-17 21:15:00
4:35 PM,42.8,30.2,61,30.62,10.0,NE,8.1,-,N/A,,Overcast,40,2012-11-17 21:35:00
4:55 PM,42.8,32.0,66,30.62,10.0,NNE,9.2,-,N/A,,Mostly Cloudy,30,2012-11-17 21:55:00
5:15 PM,42.8,32.0,66,30.62,10.0,NNE,5.8,-,N/A,,Scattered Clouds,30,2012-11-17 22:15:00
5:35 PM,42.8,33.8,70,30.63,10.0,NE,8.1,-,N/A,,Partly Cloudy,40,2012-11-17 22:35:00
5:55 PM,42.8,32.0,66,30.63,10.0,NE,8.1,-,N/A,,Clear,50,2012-11-17 22:55:00
6:15 PM,42.8,33.8,70,30.64,10.0,NNE,6.9,-,N/A,,Clear,30,2012-11-17 23:15:00
6:35 PM,42.8,33.8,70,30.64,10.0,NNE,8.1,-,N/A,,Clear,30,2012-11-17 23:35:00
6:55 PM,42.8,33.8,70,30.64,10.0,NNE,8.1,-,N/A,,Clear,30,2012-11-17 23:55:00
7:55 PM,42.8,32.0,66,30.64,10.0,NE,9.2,-,N/A,,Clear,40,2012-11-18 00:55:00
8:15 PM,42.8,30.2,61,30.65,10.0,ENE,9.2,-,N/A,,Clear,60,2012-11-18 01:15:00
8:35 PM,42.8,30.2,61,30.65,10.0,ENE,8.1,-,N/A,,Clear,60,2012-11-18 01:35:00
8:55 PM,42.8,30.2,61,30.65,10.0,ENE,8.1,-,N/A,,Clear,60,2012-11-18 01:55:00
9:15 PM,42.8,33.8,70,30.65,10.0,ENE,6.9,-,N/A,,Clear,60,2012-11-18 02:15:00
9:35 PM,41.0,32.0,70,30.65,10.0,NE,5.8,-,N/A,,Clear,50,2012-11-18 02:35:00
9:55 PM,42.8,33.8,70,30.65,10.0,NE,8.1,-,N/A,,Clear,50,2012-11-18 02:55:00
10:35 PM,41.0,32.0,70,30.65,10.0,NE,5.8,-,N/A,,Clear,50,2012-11-18 03:35:00